Location: Poughquag
(41.6090°N, 73.6820°W)
Time: 09:26:22
(UTC-05:00)

DIWATA 2B (PO-101) - Pass Details

Date: 18 November 2025
Orbit: 563 x 574 km, 98.1° (Epoch: 07 December)

Event Time Altitude Azimuth Distance (km) Brightness Sun altitude
Rises 03:46:00 0° 113° (ESE) 2,764 ? -33.8°
Reaches altitude 10° 03:49:48 10° 76° (ENE) 1,870 ? -33.1°
Maximum altitude 03:50:47 11° 62° (ENE) 1,821 ? -32.9°
Drops below altitude 10° 03:51:46 10° 48° (NE) 1,872 ? -32.7°
Enters shadow 03:54:15 - 20° (NNE) 2,372 ? -32.3°
